When you browse on this site, cookies collect data to enhance your experience and personalize the content and advertising you see.
Visit our Privacy Policy to learn more. By continuing to use the site, you agree to this use of cookies and data.
  • In United Kingdom
  • List of Countries
  • For 7 days
  • Water Temperature
  • Weather Map
  • Weather Widgets
  • user-avatar
    Login

    Hourly Weather Adrar

    Today, 25 January, Saturday

    Time Temperature Precipitation Wind Pressure Humidity
    00:00 +28°C° 0 mm 6 mps 734 mmHg 17%
    01:00 +28°C° 0 mm 7 mps 733 mmHg 16%
    02:00 +28°C° 0 mm 8 mps 733 mmHg 16%
    03:00 +27°C° 0 mm 8 mps 733 mmHg 16%
    04:00 +27°C° 0 mm 8 mps 733 mmHg 16%
    05:00 +26°C° 0 mm 8 mps 733 mmHg 17%
    06:00 +26°C° 0 mm 8 mps 734 mmHg 17%
    07:00 +27°C° 0 mm 9 mps 734 mmHg 18%
    08:00 +27°C° 0 mm 9 mps 735 mmHg 18%
    09:00 +28°C° 0 mm 8 mps 735 mmHg 19%
    10:00 +31°C° 0 mm 8 mps 735 mmHg 19%
    11:00 +32°C° 0 mm 7 mps 735 mmHg 20%
    12:00 +33°C° 0 mm 6 mps 734 mmHg 18%
    13:00 +35°C° 0 mm 5 mps 733 mmHg 16%
    14:00 +36°C° 0 mm 5 mps 733 mmHg 14%
    15:00 +36°C° 0 mm 4 mps 733 mmHg 13%
    16:00 +35°C° 0 mm 3 mps 733 mmHg 12%
    17:00 +34°C° 0 mm 2 mps 733 mmHg 11%
    18:00 +31°C° 0 mm 3 mps 733 mmHg 15%
    19:00 +29°C° 0 mm 3 mps 733 mmHg 19%
    20:00 +27°C° 0 mm 4 mps 734 mmHg 22%
    21:00 +27°C° 0 mm 4 mps 734 mmHg 23%
    22:00 +27°C° 0 mm 4 mps 734 mmHg 24%
    23:00 +26°C° 0 mm 4 mps 734 mmHg 25%

    Tomorrow, 26 January, Sunday

    Time Temperature Precipitation Wind Pressure Humidity
    00:00 +26°C° 0 mm 4 mps 734 mmHg 25%
    01:00 +26°C° 0 mm 4 mps 734 mmHg 25%
    02:00 +25°C° 0 mm 5 mps 734 mmHg 24%
    03:00 +25°C° 0 mm 4 mps 734 mmHg 26%
    04:00 +24°C° 0 mm 3 mps 734 mmHg 28%
    05:00 +24°C° 0 mm 3 mps 734 mmHg 30%
    06:00 +25°C° 0 mm 3 mps 734 mmHg 29%
    07:00 +25°C° 0 mm 3 mps 735 mmHg 28%
    08:00 +26°C° 0 mm 3 mps 735 mmHg 27%
    09:00 +28°C° 0 mm 3 mps 735 mmHg 25%
    10:00 +30°C° 0 mm 4 mps 735 mmHg 22%
    11:00 +33°C° 0 mm 4 mps 736 mmHg 20%
    12:00 +33°C° 0 mm 3 mps 735 mmHg 19%
    13:00 +34°C° 0 mm 3 mps 734 mmHg 18%
    14:00 +34°C° 0 mm 2 mps 734 mmHg 17%
    15:00 +34°C° 0 mm 2 mps 734 mmHg 17%
    16:00 +34°C° 0 mm 2 mps 734 mmHg 17%
    17:00 +32°C° 0 mm 2 mps 733 mmHg 17%
    18:00 +30°C° 0 mm 2 mps 734 mmHg 20%
    19:00 +28°C° 0 mm 2 mps 734 mmHg 23%
    20:00 +26°C° 0 mm 3 mps 734 mmHg 26%
    21:00 +25°C° 0 mm 3 mps 734 mmHg 26%
    22:00 +25°C° 0 mm 4 mps 734 mmHg 27%
    23:00 +23°C° 0 mm 5 mps 735 mmHg 27%

    Day after tomorrow, 27 January, Monday

    Time Temperature Precipitation Wind Pressure Humidity
    00:00 +23°C° 0 mm 6 mps 734 mmHg 26%
    01:00 +22°C° 0 mm 6 mps 734 mmHg 26%
    02:00 +22°C° 0 mm 6 mps 734 mmHg 25%
    03:00 +22°C° 0 mm 7 mps 733 mmHg 25%
    04:00 +21°C° 0 mm 7 mps 733 mmHg 25%
    05:00 +21°C° 0 mm 7 mps 733 mmHg 25%
    06:00 +22°C° 0 mm 8 mps 733 mmHg 25%
    07:00 +23°C° 0 mm 8 mps 734 mmHg 24%
    08:00 +23°C° 0 mm 9 mps 734 mmHg 24%
    09:00 +27°C° 0 mm 9 mps 734 mmHg 21%
    10:00 +31°C° 0 mm 9 mps 734 mmHg 18%
    11:00 +33°C° 0 mm 9 mps 734 mmHg 16%
    12:00 +34°C° 0 mm 8 mps 734 mmHg 14%
    13:00 +35°C° 0 mm 8 mps 733 mmHg 13%
    14:00 +36°C° 0 mm 7 mps 732 mmHg 12%
    15:00 +36°C° 0 mm 6 mps 732 mmHg 13%
    16:00 +35°C° 0 mm 5 mps 732 mmHg 13%
    17:00 +34°C° 0 mm 4 mps 732 mmHg 14%
    18:00 +32°C° 0 mm 5 mps 732 mmHg 17%
    19:00 +29°C° 0 mm 5 mps 733 mmHg 19%
    20:00 +27°C° 0 mm 5 mps 733 mmHg 21%
    21:00 +27°C° 0 mm 5 mps 733 mmHg 22%
    22:00 +26°C° 0 mm 6 mps 733 mmHg 23%
    23:00 +26°C° 0 mm 6 mps 734 mmHg 25%

    28 January, Tuesday

    Time Temperature Precipitation Wind Pressure Humidity
    00:00 +24°C° 0 mm 6 mps 733 mmHg 25%
    01:00 +24°C° 0 mm 7 mps 733 mmHg 26%
    02:00 +23°C° 0 mm 7 mps 733 mmHg 27%
    03:00 +23°C° 0 mm 7 mps 733 mmHg 27%
    04:00 +22°C° 0 mm 8 mps 733 mmHg 27%
    05:00 +22°C° 0 mm 8 mps 733 mmHg 28%
    06:00 +23°C° 0 mm 8 mps 733 mmHg 26%
    07:00 +24°C° 0 mm 9 mps 734 mmHg 25%
    08:00 +26°C° 0 mm 9 mps 734 mmHg 23%
    09:00 +28°C° 0 mm 9 mps 734 mmHg 21%
    10:00 +31°C° 0 mm 9 mps 734 mmHg 18%
    11:00 +34°C° 0 mm 9 mps 734 mmHg 15%
    12:00 +35°C° 0 mm 9 mps 734 mmHg 14%
    13:00 +37°C° 0 mm 8 mps 733 mmHg 13%
    14:00 +38°C° 0 mm 7 mps 732 mmHg 12%
    15:00 +36°C° 0 mm 6 mps 732 mmHg 12%
    16:00 +35°C° 0 mm 5 mps 732 mmHg 13%
    17:00 +34°C° 0 mm 4 mps 732 mmHg 13%
    18:00 +32°C° 0 mm 5 mps 733 mmHg 15%
    19:00 +29°C° 0 mm 5 mps 733 mmHg 17%
    20:00 +28°C° 0 mm 6 mps 734 mmHg 19%
    21:00 +27°C° 0 mm 6 mps 734 mmHg 19%
    22:00 +26°C° 0 mm 6 mps 734 mmHg 20%
    23:00 +26°C° 0 mm 7 mps 734 mmHg 20%

    29 January, Wednesday

    Time Temperature Precipitation Wind Pressure Humidity
    00:00 +24°C° 0 mm 7 mps 734 mmHg 20%
    01:00 +23°C° 0 mm 7 mps 734 mmHg 20%
    02:00 +23°C° 0 mm 7 mps 733 mmHg 20%
    03:00 +22°C° 0 mm 7 mps 733 mmHg 20%
    04:00 +22°C° 0 mm 7 mps 733 mmHg 20%
    05:00 +21°C° 0 mm 7 mps 733 mmHg 21%
    06:00 +22°C° 0 mm 8 mps 734 mmHg 20%
    07:00 +23°C° 0 mm 8 mps 734 mmHg 20%
    08:00 +24°C° 0 mm 8 mps 735 mmHg 19%
    09:00 +27°C° 0 mm 8 mps 735 mmHg 17%
    10:00 +31°C° 0 mm 8 mps 735 mmHg 15%
    11:00 +33°C° 0 mm 7 mps 735 mmHg 12%
    12:00 +34°C° 0 mm 7 mps 734 mmHg 11%
    13:00 +35°C° 0 mm 7 mps 734 mmHg 10%
    14:00 +35°C° 0 mm 7 mps 733 mmHg 9%
    15:00 +34°C° 0 mm 6 mps 733 mmHg 9%
    16:00 +33°C° 0 mm 6 mps 733 mmHg 10%
    17:00 +32°C° 0 mm 6 mps 733 mmHg 10%
    18:00 +29°C° 0 mm 6 mps 733 mmHg 11%
    19:00 +27°C° 0 mm 5 mps 734 mmHg 12%
    20:00 +25°C° 0 mm 5 mps 734 mmHg 14%
    21:00 +25°C° 0 mm 5 mps 735 mmHg 15%
    22:00 +23°C° 0 mm 6 mps 735 mmHg 15%
    23:00 +22°C° 0 mm 6 mps 735 mmHg 16%

    30 January, Thursday

    Time Temperature Precipitation Wind Pressure Humidity
    00:00 +22°C° 0 mm 6 mps 735 mmHg 17%
    01:00 +21°C° 0 mm 7 mps 734 mmHg 19%
    02:00 +21°C° 0 mm 7 mps 734 mmHg 20%
    03:00 +20°C° 0 mm 7 mps 734 mmHg 20%
    04:00 +20°C° 0 mm 7 mps 734 mmHg 19%
    05:00 +18°C° 0 mm 7 mps 734 mmHg 19%
    06:00 +20°C° 0 mm 7 mps 734 mmHg 17%
    07:00 +21°C° 0 mm 8 mps 735 mmHg 16%
    08:00 +22°C° 0 mm 8 mps 736 mmHg 14%
    09:00 +24°C° 0 mm 8 mps 736 mmHg 12%
    10:00 +27°C° 0 mm 8 mps 736 mmHg 10%
    11:00 +29°C° 0 mm 8 mps 736 mmHg 9%
    12:00 +31°C° 0 mm 8 mps 735 mmHg 7%
    13:00 +33°C° 0 mm 8 mps 734 mmHg 6%
    14:00 +34°C° 0 mm 8 mps 734 mmHg 5%
    15:00 +32°C° 0 mm 7 mps 734 mmHg 5%
    16:00 +30°C° 0 mm 6 mps 734 mmHg 6%
    17:00 +29°C° 0 mm 6 mps 734 mmHg 6%
    18:00 +27°C° 0 mm 6 mps 734 mmHg 7%
    19:00 +24°C° 0 mm 6 mps 735 mmHg 8%
    20:00 +22°C° 0 mm 6 mps 735 mmHg 10%
    21:00 +22°C° 0 mm 6 mps 735 mmHg 10%
    22:00 +21°C° 0 mm 7 mps 735 mmHg 11%
    23:00 +21°C° 0 mm 7 mps 736 mmHg 11%
    Show more